| time (UTC) | temp F | wind direction | speed knots | gust knots | rain 1hr in | rain 24hr in | rain mn in | humidity % | barometer mb |
| 20260505223517 | 80 | 185 | 3.5 | 9.6 | 0.00 | 0.00 | 0.00 | 41 | 1013.6 |
| 20260505223017 | 81 | 190 | 3.5 | 10.4 | 0.00 | 0.00 | 0.00 | 41 | 1013.7 |
| 20260505222517 | 81 | 186 | 2.6 | 6.1 | 0.00 | 0.00 | 0.00 | 41 | 1013.7 |
| 20260505222017 | 80 | 192 | 1.7 | 7.0 | 0.00 | 0.00 | 0.00 | 41 | 1013.8 |
| 20260505221517 | 80 | 196 | 3.5 | 9.6 | 0.00 | 0.00 | 0.00 | 41 | 1013.8 |
| 20260505221017 | 80 | 204 | 1.7 | 6.1 | 0.00 | 0.00 | 0.00 | 42 | 1013.8 |
| 20260505220517 | 79 | 191 | 2.6 | 7.0 | 0.00 | 0.00 | 0.00 | 42 | 1013.8 |
| 20260505220038 | 79 | 188 | 4.3 | 11.3 | 0.00 | 0.00 | 0.00 | 42 | 1013.9 |
| 20260505215518 | 80 | 191 | 4.3 | 9.6 | 0.00 | 0.00 | 0.00 | 41 | 1013.8 |
| 20260505215018 | 79 | 188 | 3.5 | 8.7 | 0.00 | 0.00 | 0.00 | 42 | 1013.9 |
| 20260505214518 | 80 | 185 | 3.5 | 9.6 | 0.00 | 0.00 | 0.00 | 42 | 1013.9 |
| 20260505214017 | 81 | 193 | 3.5 | 7.8 | 0.00 | 0.00 | 0.00 | 41 | 1013.8 |
| 20260505213538 | 81 | 198 | 3.5 | 9.6 | 0.00 | 0.00 | 0.00 | 42 | 1013.9 |
| 20260505213018 | 80 | 204 | 3.5 | 7.8 | 0.00 | 0.00 | 0.00 | 42 | 1013.9 |
| 20260505212518 | 80 | 192 | 2.6 | 7.0 | 0.00 | 0.00 | 0.00 | 42 | 1014.0 |
| 20260505212038 | 81 | 209 | 2.6 | 7.0 | 0.00 | 0.00 | 0.00 | 42 | 1014.0 |
| 20260505211515 | 80 | 188 | 4.3 | 10.4 | 0.00 | 0.00 | 0.00 | 41 | 1014.0 |
| 20260505211015 | 80 | 190 | 4.3 | 7.8 | 0.00 | 0.00 | 0.00 | 42 | 1014.0 |
| 20260505210515 | 80 | 200 | 2.6 | 7.0 | 0.00 | 0.00 | 0.00 | 42 | 1014.1 |
| 20260505210015 | 79 | 211 | 1.7 | 5.2 | 0.00 | 0.00 | 0.00 | 43 | 1014.0 |
| 20260505205515 | 79 | 198 | 2.6 | 7.8 | 0.00 | 0.00 | 0.00 | 43 | 1014.1 |
| 20260505205035 | 79 | 183 | 4.3 | 7.8 | 0.00 | 0.00 | 0.00 | 42 | 1014.2 |
| 20260505204516 | 79 | 187 | 5.2 | 12.2 | 0.00 | 0.00 | 0.00 | 42 | 1014.2 |
| 20260505204016 | 80 | 190 | 3.5 | 7.8 | 0.00 | 0.00 | 0.00 | 41 | 1014.3 |
| 20260505203521 | 80 | 209 | 2.6 | 7.8 | 0.00 | 0.00 | 0.00 | 41 | 1014.3 |
| 20260505203015 | 81 | 193 | 4.3 | 11.3 | 0.00 | 0.00 | 0.00 | 40 | 1014.3 |
| 20260505202516 | 81 | 238 | 2.6 | 7.0 | 0.00 | 0.00 | 0.00 | 41 | 1014.3 |
| 20260505202016 | 81 | 185 | 4.3 | 10.4 | 0.00 | 0.00 | 0.00 | 40 | 1014.3 |
| 20260505201556 | 81 | 188 | 4.3 | 9.6 | 0.00 | 0.00 | 0.00 | 41 | 1014.3 |
| 20260505201016 | 81 | 195 | 3.5 | 9.6 | 0.00 | 0.00 | 0.00 | 40 | 1014.5 |
| 20260505200516 | 81 | 193 | 3.5 | 7.8 | 0.00 | 0.00 | 0.00 | 40 | 1014.5 |
| 20260505200016 | 81 | 184 | 5.2 | 11.3 | 0.00 | 0.00 | 0.00 | 40 | 1014.6 |
| 20260505195516 | 81 | 194 | 2.6 | 9.6 | 0.00 | 0.00 | 0.00 | 40 | 1014.6 |
| 20260505195016 | 81 | 194 | 2.6 | 7.0 | 0.00 | 0.00 | 0.00 | 39 | 1014.7 |
| 20260505194516 | 81 | 185 | 5.2 | 13.0 | 0.00 | 0.00 | 0.00 | 38 | 1014.7 |
| 20260505194017 | 81 | 186 | 4.3 | 9.6 | 0.00 | 0.00 | 0.00 | 38 | 1014.8 |
| 20260505193517 | 81 | 195 | 3.5 | 6.1 | 0.00 | 0.00 | 0.00 | 39 | 1015.0 |
| 20260505193037 | 81 | 194 | 5.2 | 11.3 | 0.00 | 0.00 | 0.00 | 39 | 1015.1 |
| 20260505192520 | 81 | 190 | 4.3 | 8.7 | 0.00 | 0.00 | 0.00 | 39 | 1015.1 |
| 20260505192020 | 81 | 187 | 3.5 | 8.7 | 0.00 | 0.00 | 0.00 | 40 | 1015.1 |
| 20260505191520 | 81 | 189 | 5.2 | 9.6 | 0.00 | 0.00 | 0.00 | 39 | 1015.1 |
| 20260505191020 | 81 | 191 | 4.3 | 10.4 | 0.00 | 0.00 | 0.00 | 39 | 1015.3 |
| 20260505190517 | 81 | 223 | 2.6 | 6.1 | 0.00 | 0.00 | 0.00 | 40 | 1015.3 |
| 20260505190017 | 80 | 187 | 3.5 | 7.8 | 0.00 | 0.00 | 0.00 | 40 | 1015.4 |
| 20260505185517 | 80 | 190 | 5.2 | 10.4 | 0.00 | 0.00 | 0.00 | 41 | 1015.4 |
| 20260505185037 | 81 | 191 | 5.2 | 12.2 | 0.00 | 0.00 | 0.00 | 40 | 1015.5 |
| 20260505184517 | 81 | 199 | 3.5 | 9.6 | 0.00 | 0.00 | 0.00 | 40 | 1015.5 |
| 20260505184057 | 80 | 198 | 2.6 | 9.6 | 0.00 | 0.00 | 0.00 | 41 | 1015.6 |
| 20260505183518 | 80 | 288 | 2.6 | 6.1 | 0.00 | 0.00 | 0.00 | 42 | 1015.8 |
| 20260505183018 | 81 | 190 | 3.5 | 8.7 | 0.00 | 0.00 | 0.00 | 41 | 1015.8 |
| 20260505182518 | 80 | 209 | 3.5 | 8.7 | 0.00 | 0.00 | 0.00 | 41 | 1016.0 |
| 20260505182018 | 80 | 195 | 3.5 | 7.0 | 0.00 | 0.00 | 0.00 | 41 | 1015.9 |
| 20260505181518 | 80 | 182 | 5.2 | 12.2 | 0.00 | 0.00 | 0.00 | 41 | 1016.0 |
| 20260505181018 | 80 | 204 | 3.5 | 10.4 | 0.00 | 0.00 | 0.00 | 41 | 1016.0 |
| 20260505180518 | 80 | 200 | 3.5 | 9.6 | 0.00 | 0.00 | 0.00 | 41 | 1016.0 |
| 20260505180018 | 79 | 189 | 3.5 | 7.8 | 0.00 | 0.00 | 0.00 | 42 | 1016.1 |
| 20260505175518 | 78 | 199 | 2.6 | 7.8 | 0.00 | 0.00 | 0.00 | 42 | 1016.1 |
| 20260505175015 | 79 | 192 | 4.3 | 7.8 | 0.00 | 0.00 | 0.00 | 42 | 1016.1 |
| 20260505174518 | 79 | 195 | 4.3 | 11.3 | 0.00 | 0.00 | 0.00 | 41 | 1016.1 |
| 20260505174015 | 78 | 186 | 5.2 | 8.7 | 0.00 | 0.00 | 0.00 | 40 | 1016.1 |
| 20260505173515 | 79 | 194 | 6.1 | 13.9 | 0.00 | 0.00 | 0.00 | 39 | 1016.1 |
| 20260505173016 | 79 | 192 | 4.3 | 11.3 | 0.00 | 0.00 | 0.00 | 39 | 1016.1 |
| 20260505172555 | 79 | 193 | 5.2 | 13.9 | 0.00 | 0.00 | 0.00 | 41 | 1016.1 |
| 20260505172015 | 79 | 183 | 3.5 | 9.6 | 0.00 | 0.00 | 0.00 | 44 | 1016.0 |
| 20260505171516 | 79 | 187 | 2.6 | 7.0 | 0.00 | 0.00 | 0.00 | 43 | 1016.2 |
| 20260505171016 | 78 | 197 | 3.5 | 10.4 | 0.00 | 0.00 | 0.00 | 43 | 1016.1 |
| 20260505170516 | 78 | 188 | 5.2 | 10.4 | 0.00 | 0.00 | 0.00 | 43 | 1016.2 |
| 20260505170016 | 78 | 215 | 3.5 | 8.7 | 0.00 | 0.00 | 0.00 | 42 | 1016.3 |
| 20260505165521 | 78 | 217 | 3.5 | 10.4 | 0.00 | 0.00 | 0.00 | 43 | 1016.4 |
| 20260505165016 | 77 | 210 | 2.6 | 8.7 | 0.00 | 0.00 | 0.00 | 43 | 1016.5 |
| 20260505164516 | 77 | 192 | 4.3 | 9.6 | 0.00 | 0.00 | 0.00 | 43 | 1016.6 |
| 20260505164016 | 78 | 199 | 4.3 | 8.7 | 0.00 | 0.00 | 0.00 | 42 | 1016.7 |
| 20260505163516 | 77 | 188 | 2.6 | 7.0 | 0.00 | 0.00 | 0.00 | 45 | 1016.7 |
| 20260505163016 | 77 | 193 | 2.6 | 7.0 | 0.00 | 0.00 | 0.00 | 47 | 1016.7 |
| 20260505162516 | 77 | 192 | 4.3 | 11.3 | 0.00 | 0.00 | 0.00 | 47 | 1016.8 |
| 20260505162016 | 77 | 191 | 4.3 | 7.8 | 0.00 | 0.00 | 0.00 | 48 | 1016.8 |
| 20260505161516 | 77 | 282 | 1.7 | 5.2 | 0.00 | 0.00 | 0.00 | 49 | 1016.9 |
| 20260505161037 | 76 | 203 | 1.7 | 5.2 | 0.00 | 0.00 | 0.00 | 50 | 1017.0 |
| 20260505160517 | 76 | 201 | 2.6 | 7.0 | 0.00 | 0.00 | 0.00 | 50 | 1017.0 |
| 20260505153037 | 73 | 188 | 3.5 | 7.8 | 0.00 | 0.00 | 0.00 | 56 | 1017.2 |
| 20260505152517 | 73 | 192 | 4.3 | 9.6 | 0.00 | 0.00 | 0.00 | 56 | 1017.3 |
| 20260505152017 | 73 | 181 | 5.2 | 8.7 | 0.00 | 0.00 | 0.00 | 58 | 1017.3 |
| 20260505151537 | 73 | 187 | 3.5 | 7.8 | 0.00 | 0.00 | 0.00 | 58 | 1017.3 |
| 20260505151017 | 73 | 188 | 3.5 | 9.6 | 0.00 | 0.00 | 0.00 | 59 | 1017.3 |
| 20260505150517 | 72 | 194 | 2.6 | 7.0 | 0.00 | 0.00 | 0.00 | 61 | 1017.3 |
| 20260505140556 | 68 | 222 | 2.6 | 7.0 | 0.00 | 0.00 | 0.00 | 68 | 1017.2 |
| 20260505125037 | 62 | 211 | 2.6 | 6.1 | 0.00 | 0.00 | 0.00 | 74 | 1017.2 |
| 20260505124516 | 62 | 290 | 2.6 | 6.1 | 0.00 | 0.00 | 0.00 | 74 | 1017.1 |
| 20260505124017 | 62 | 192 | 2.6 | 7.8 | 0.00 | 0.00 | 0.00 | 74 | 1017.1 |
| 20260505123517 | 62 | 214 | 1.7 | 4.3 | 0.00 | 0.00 | 0.00 | 75 | 1017.2 |
| 20260505123017 | 61 | 217 | 1.7 | 4.3 | 0.00 | 0.00 | 0.00 | 75 | 1017.3 |
| 20260505122516 | 61 | 258 | 1.7 | 4.3 | 0.00 | 0.00 | 0.00 | 75 | 1017.3 |
| 20260505122037 | 61 | 219 | 1.7 | 5.2 | 0.00 | 0.00 | 0.00 | 75 | 1017.1 |
| 20260505121517 | 61 | 198 | 0.9 | 6.1 | 0.00 | 0.00 | 0.00 | 76 | 1017.0 |
| 20260505121037 | 60 | 212 | 0.9 | 2.6 | 0.00 | 0.00 | 0.00 | 77 | 1017.0 |
| 20260505120517 | 59 | 219 | 0.9 | 2.6 | 0.00 | 0.00 | 0.00 | 77 | 1016.9 |
| 20260505120017 | 59 | 157 | 0.0 | 2.6 | 0.00 | 0.00 | 0.00 | 78 | 1016.8 |
| 20260505115517 | 58 | 189 | 0.9 | 3.5 | 0.00 | 0.00 | 0.00 | 78 | 1016.8 |
| 20260505115017 | 58 | 165 | 0.0 | 1.7 | 0.00 | 0.00 | 0.00 | 80 | 1016.7 |
| 20260505114517 | 57 | 0.0 | 0.0 | 0.00 | 0.00 | 0.00 | 81 | 1016.7 | |
| 20260505114017 | 56 | 157 | 0.0 | 1.7 | 0.00 | 0.00 | 0.00 | 82 | 1016.8 |
| 20260505113517 | 55 | 90 | 0.0 | 0.0 | 0.00 | 0.00 | 0.00 | 83 | 1016.9 |
| 20260505113017 | 54 | 0.0 | 0.0 | 0.00 | 0.00 | 0.00 | 84 | 1016.9 | |
| 20260505112528 | 54 | 0.0 | 0.0 | 0.00 | 0.00 | 0.00 | 85 | 1016.9 | |
| 20260505112028 | 53 | 94 | 0.0 | 0.0 | 0.00 | 0.00 | 0.00 | 86 | 1016.8 |
| 20260505111548 | 53 | 0.0 | 0.0 | 0.00 | 0.00 | 0.00 | 87 | 1016.7 | |
| 20260505111029 | 52 | 110 | 0.0 | 0.0 | 0.00 | 0.00 | 0.00 | 89 | 1016.6 |
| 20260505110610 | 52 | 0.0 | 0.0 | 0.00 | 0.00 | 0.00 | 90 | 1016.6 | |
| 20260505102029 | 55 | 0.0 | 0.0 | 0.00 | 0.00 | 0.00 | 83 | 1016.3 | |
| 20260505101529 | 55 | 177 | 0.0 | 1.7 | 0.00 | 0.00 | 0.00 | 82 | 1016.3 |
| 20260505101029 | 55 | 52 | 0.0 | 0.9 | 0.00 | 0.00 | 0.00 | 82 | 1016.2 |
| 20260505100529 | 55 | 192 | 0.0 | 1.7 | 0.00 | 0.00 | 0.00 | 82 | 1016.0 |
| 20260505100029 | 56 | 0.0 | 0.0 | 0.00 | 0.00 | 0.00 | 81 | 1015.9 | |
| 20260505095530 | 56 | 0.0 | 0.0 | 0.00 | 0.00 | 0.00 | 80 | 1015.9 | |
| 20260505095030 | 57 | 0.0 | 0.0 | 0.00 | 0.00 | 0.00 | 79 | 1015.8 | |
| 20260505094530 | 57 | 179 | 0.9 | 3.5 | 0.00 | 0.00 | 0.00 | 79 | 1015.7 |
| 20260505094030 | 57 | 175 | 1.7 | 3.5 | 0.00 | 0.00 | 0.00 | 79 | 1015.7 |
| 20260505093530 | 57 | 188 | 0.9 | 2.6 | 0.00 | 0.00 | 0.00 | 78 | 1015.6 |
| 20260505093019 | 57 | 179 | 2.6 | 5.2 | 0.00 | 0.00 | 0.00 | 78 | 1015.6 |
| 20260505092519 | 57 | 170 | 1.7 | 5.2 | 0.00 | 0.00 | 0.00 | 78 | 1015.6 |
| 20260505092016 | 57 | 185 | 1.7 | 2.6 | 0.00 | 0.00 | 0.00 | 77 | 1015.5 |
| 20260505091516 | 58 | 180 | 1.7 | 3.5 | 0.00 | 0.00 | 0.00 | 77 | 1015.5 |
| 20260505091020 | 58 | 176 | 2.6 | 5.2 | 0.00 | 0.00 | 0.00 | 76 | 1015.5 |
| 20260505090520 | 58 | 176 | 2.6 | 5.2 | 0.00 | 0.00 | 0.00 | 76 | 1015.5 |
| 20260505090020 | 58 | 180 | 2.6 | 4.3 | 0.00 | 0.00 | 0.00 | 76 | 1015.5 |
| 20260505085526 | 58 | 172 | 1.7 | 5.2 | 0.00 | 0.00 | 0.00 | 75 | 1015.4 |
| 20260505085019 | 58 | 177 | 2.6 | 5.2 | 0.00 | 0.00 | 0.00 | 75 | 1015.4 |
| 20260505084520 | 58 | 175 | 2.6 | 6.1 | 0.00 | 0.00 | 0.00 | 75 | 1015.4 |
| 20260505084057 | 58 | 184 | 2.6 | 4.3 | 0.00 | 0.00 | 0.00 | 75 | 1015.4 |
| 20260505083540 | 58 | 183 | 2.6 | 4.3 | 0.00 | 0.00 | 0.00 | 74 | 1015.4 |
| 20260505083020 | 58 | 172 | 2.6 | 6.1 | 0.00 | 0.00 | 0.00 | 74 | 1015.4 |
| 20260505082520 | 58 | 177 | 2.6 | 5.2 | 0.00 | 0.00 | 0.00 | 74 | 1015.3 |
| 20260505082020 | 58 | 181 | 2.6 | 5.2 | 0.00 | 0.00 | 0.00 | 73 | 1015.3 |
| 20260505081520 | 58 | 172 | 2.6 | 6.1 | 0.00 | 0.00 | 0.00 | 73 | 1015.3 |
| 20260505081020 | 58 | 175 | 3.5 | 7.8 | 0.00 | 0.00 | 0.00 | 73 | 1015.3 |
| 20260505080520 | 59 | 180 | 2.6 | 5.2 | 0.00 | 0.00 | 0.00 | 73 | 1015.3 |
| 20260505080020 | 59 | 174 | 1.7 | 5.2 | 0.00 | 0.00 | 0.00 | 73 | 1015.3 |
| 20260505075520 | 59 | 173 | 2.6 | 6.1 | 0.00 | 0.00 | 0.00 | 72 | 1015.3 |
| 20260505075020 | 59 | 181 | 1.7 | 4.3 | 0.00 | 0.00 | 0.00 | 72 | 1015.2 |
| 20260505074521 | 59 | 175 | 1.7 | 5.2 | 0.00 | 0.00 | 0.00 | 71 | 1015.3 |
| 20260505074021 | 59 | 174 | 1.7 | 6.1 | 0.00 | 0.00 | 0.00 | 71 | 1015.3 |
| 20260505073518 | 59 | 174 | 2.6 | 8.7 | 0.00 | 0.00 | 0.00 | 70 | 1015.2 |
| 20260505073027 | 59 | 178 | 2.6 | 7.0 | 0.00 | 0.00 | 0.00 | 70 | 1015.2 |
| 20260505072527 | 60 | 172 | 2.6 | 7.8 | 0.00 | 0.00 | 0.00 | 70 | 1015.2 |
| 20260505072027 | 60 | 190 | 2.6 | 6.1 | 0.00 | 0.00 | 0.00 | 69 | 1015.2 |
| 20260505071532 | 60 | 197 | 1.7 | 6.1 | 0.00 | 0.00 | 0.00 | 69 | 1015.1 |
| 20260505071027 | 60 | 180 | 3.5 | 7.0 | 0.00 | 0.00 | 0.00 | 68 | 1015.1 |
| 20260505070528 | 60 | 179 | 2.6 | 7.0 | 0.00 | 0.00 | 0.00 | 68 | 1015.1 |
| 20260505070024 | 60 | 184 | 2.6 | 7.0 | 0.00 | 0.00 | 0.00 | 69 | 1015.1 |
| 20260505065524 | 60 | 182 | 2.6 | 7.0 | 0.00 | 0.00 | 0.00 | 68 | 1015.1 |
| 20260505065025 | 60 | 177 | 3.5 | 7.8 | 0.00 | 0.00 | 0.00 | 68 | 1015.1 |
| 20260505064525 | 60 | 179 | 3.5 | 6.1 | 0.00 | 0.00 | 0.00 | 68 | 1015.1 |
| 20260505064025 | 60 | 180 | 2.6 | 7.8 | 0.00 | 0.00 | 0.00 | 67 | 1015.2 |
| 20260505063525 | 60 | 181 | 2.6 | 6.1 | 0.00 | 0.00 | 0.00 | 67 | 1015.2 |
| 20260505063022 | 61 | 177 | 3.5 | 7.8 | 0.00 | 0.00 | 0.00 | 67 | 1015.3 |
| 20260505062516 | 61 | 186 | 2.6 | 6.1 | 0.00 | 0.00 | 0.00 | 66 | 1015.3 |
| 20260505062016 | 61 | 182 | 2.6 | 6.1 | 0.00 | 0.00 | 0.00 | 66 | 1015.3 |
| 20260505061516 | 61 | 181 | 2.6 | 6.1 | 0.00 | 0.00 | 0.00 | 66 | 1015.3 |
| 20260505061016 | 61 | 183 | 2.6 | 4.3 | 0.00 | 0.00 | 0.00 | 66 | 1015.3 |
| 20260505060517 | 61 | 183 | 2.6 | 6.1 | 0.00 | 0.00 | 0.00 | 66 | 1015.3 |
| 20260505060016 | 61 | 178 | 2.6 | 6.1 | 0.00 | 0.00 | 0.00 | 65 | 1015.3 |
| 20260505055537 | 61 | 180 | 2.6 | 6.1 | 0.00 | 0.00 | 0.00 | 65 | 1015.3 |
| 20260505055016 | 61 | 176 | 3.5 | 7.8 | 0.00 | 0.00 | 0.00 | 65 | 1015.3 |
| 20260505054516 | 61 | 183 | 1.7 | 7.8 | 0.00 | 0.00 | 0.00 | 65 | 1015.3 |
| 20260505054017 | 62 | 180 | 2.6 | 6.1 | 0.00 | 0.00 | 0.00 | 65 | 1015.3 |
| 20260505053537 | 62 | 179 | 2.6 | 6.1 | 0.00 | 0.00 | 0.00 | 65 | 1015.3 |
| 20260505053017 | 62 | 175 | 3.5 | 6.1 | 0.00 | 0.00 | 0.00 | 64 | 1015.4 |
| 20260505052517 | 62 | 182 | 3.5 | 6.1 | 0.00 | 0.00 | 0.00 | 64 | 1015.4 |
| 20260505052037 | 62 | 184 | 1.7 | 6.1 | 0.00 | 0.00 | 0.00 | 64 | 1015.4 |
| 20260505051517 | 62 | 190 | 2.6 | 5.2 | 0.00 | 0.00 | 0.00 | 63 | 1015.5 |
| 20260505051018 | 62 | 193 | 2.6 | 6.1 | 0.00 | 0.00 | 0.00 | 64 | 1015.5 |
| 20260505050517 | 63 | 179 | 2.6 | 6.1 | 0.00 | 0.00 | 0.00 | 63 | 1015.5 |
| 20260505041518 | 64 | 178 | 3.5 | 9.6 | 0.00 | 0.00 | 0.00 | 60 | 1015.6 |
| 20260505041018 | 64 | 188 | 3.5 | 7.0 | 0.00 | 0.00 | 0.00 | 59 | 1015.6 |
| 20260505040518 | 64 | 183 | 2.6 | 7.0 | 0.00 | 0.00 | 0.00 | 59 | 1015.6 |
| 20260505040015 | 64 | 191 | 3.5 | 8.7 | 0.00 | 0.00 | 0.00 | 58 | 1015.6 |
| 20260505035515 | 64 | 183 | 3.5 | 8.7 | 0.00 | 0.00 | 0.00 | 57 | 1015.6 |
| 20260505035015 | 64 | 181 | 4.3 | 7.8 | 0.00 | 0.00 | 0.00 | 56 | 1015.5 |
| 20260505034515 | 64 | 180 | 3.5 | 7.8 | 0.00 | 0.00 | 0.00 | 56 | 1015.5 |
| 20260505034015 | 63 | 183 | 2.6 | 5.2 | 0.00 | 0.00 | 0.00 | 56 | 1015.5 |
| 20260505033516 | 64 | 190 | 1.7 | 6.1 | 0.00 | 0.00 | 0.00 | 55 | 1015.6 |
| 20260505033016 | 64 | 188 | 2.6 | 6.1 | 0.00 | 0.00 | 0.00 | 55 | 1015.6 |
| 20260505032515 | 64 | 179 | 1.7 | 3.5 | 0.00 | 0.00 | 0.00 | 54 | 1015.5 |
| 20260505032016 | 64 | 179 | 1.7 | 5.2 | 0.00 | 0.00 | 0.00 | 54 | 1015.5 |
| 20260505031536 | 64 | 186 | 1.7 | 4.3 | 0.00 | 0.00 | 0.00 | 53 | 1015.5 |
| 20260505031018 | 65 | 183 | 1.7 | 4.3 | 0.00 | 0.00 | 0.00 | 53 | 1015.5 |
| 20260505030516 | 65 | 179 | 1.7 | 5.2 | 0.00 | 0.00 | 0.00 | 52 | 1015.5 |
| 20260505030016 | 65 | 182 | 2.6 | 5.2 | 0.00 | 0.00 | 0.00 | 52 | 1015.5 |
| 20260505025516 | 65 | 181 | 1.7 | 5.2 | 0.00 | 0.00 | 0.00 | 52 | 1015.5 |
| 20260505025016 | 65 | 180 | 1.7 | 4.3 | 0.00 | 0.00 | 0.00 | 52 | 1015.5 |
| 20260505024517 | 65 | 177 | 2.6 | 5.2 | 0.00 | 0.00 | 0.00 | 51 | 1015.5 |
| 20260505024016 | 65 | 180 | 1.7 | 5.2 | 0.00 | 0.00 | 0.00 | 51 | 1015.4 |
| 20260505023516 | 65 | 182 | 1.7 | 3.5 | 0.00 | 0.00 | 0.00 | 51 | 1015.4 |
| 20260505023017 | 66 | 185 | 1.7 | 3.5 | 0.00 | 0.00 | 0.00 | 50 | 1015.4 |
| 20260505022516 | 66 | 187 | 2.6 | 4.3 | 0.00 | 0.00 | 0.00 | 50 | 1015.3 |
| 20260505022017 | 66 | 188 | 2.6 | 4.3 | 0.00 | 0.00 | 0.00 | 49 | 1015.3 |
| 20260505021517 | 66 | 182 | 2.6 | 5.2 | 0.00 | 0.00 | 0.00 | 49 | 1015.2 |
| 20260505021017 | 66 | 181 | 1.7 | 4.3 | 0.00 | 0.00 | 0.00 | 48 | 1015.2 |
| 20260505020517 | 67 | 186 | 1.7 | 4.3 | 0.00 | 0.00 | 0.00 | 48 | 1015.2 |
| 20260505020017 | 67 | 182 | 2.6 | 4.3 | 0.00 | 0.00 | 0.00 | 47 | 1015.2 |
| 20260505015517 | 67 | 190 | 2.6 | 4.3 | 0.00 | 0.00 | 0.00 | 46 | 1015.1 |
| 20260505015017 | 66 | 185 | 2.6 | 5.2 | 0.00 | 0.00 | 0.00 | 46 | 1015.0 |
| 20260505014537 | 66 | 183 | 1.7 | 4.3 | 0.00 | 0.00 | 0.00 | 45 | 1015.0 |
| 20260505014017 | 66 | 184 | 2.6 | 5.2 | 0.00 | 0.00 | 0.00 | 44 | 1015.0 |
| 20260505013517 | 65 | 183 | 0.9 | 3.5 | 0.00 | 0.00 | 0.00 | 44 | 1014.9 |
| 20260505013017 | 66 | 199 | 0.0 | 2.6 | 0.00 | 0.00 | 0.00 | 43 | 1014.8 |
| 20260505012517 | 66 | 185 | 0.9 | 2.6 | 0.00 | 0.00 | 0.00 | 42 | 1014.7 |
| 20260505012018 | 66 | 188 | 0.9 | 2.6 | 0.00 | 0.00 | 0.00 | 43 | 1014.7 |
| 20260505011517 | 65 | 186 | 0.9 | 3.5 | 0.00 | 0.00 | 0.00 | 43 | 1014.6 |
| 20260505011017 | 65 | 176 | 0.0 | 3.5 | 0.00 | 0.00 | 0.00 | 45 | 1014.6 |
| 20260505010537 | 66 | 175 | 0.0 | 1.7 | 0.00 | 0.00 | 0.00 | 44 | 1014.5 |
| 20260505010017 | 66 | 188 | 0.0 | 1.7 | 0.00 | 0.00 | 0.00 | 44 | 1014.4 |
| 20260505005518 | 67 | 180 | 0.0 | 1.7 | 0.00 | 0.00 | 0.00 | 43 | 1014.4 |
| 20260505005018 | 68 | 189 | 0.9 | 2.6 | 0.00 | 0.00 | 0.00 | 42 | 1014.4 |
| 20260505004517 | 68 | 192 | 0.9 | 2.6 | 0.00 | 0.00 | 0.00 | 41 | 1014.3 |
| 20260505004018 | 69 | 195 | 0.9 | 2.6 | 0.00 | 0.00 | 0.00 | 40 | 1014.2 |
| 20260505003538 | 70 | 206 | 0.9 | 2.6 | 0.00 | 0.00 | 0.00 | 39 | 1014.2 |
| 20260505003015 | 71 | 199 | 0.9 | 2.6 | 0.00 | 0.00 | 0.00 | 38 | 1014.1 |
| 20260505002518 | 71 | 207 | 0.9 | 2.6 | 0.00 | 0.00 | 0.00 | 37 | 1014.1 |
| 20260505002015 | 72 | 185 | 1.7 | 6.1 | 0.00 | 0.00 | 0.00 | 37 | 1014.1 |
| 20260505001515 | 72 | 186 | 2.6 | 4.3 | 0.00 | 0.00 | 0.00 | 37 | 1014.1 |
| 20260505001016 | 72 | 186 | 1.7 | 4.3 | 0.00 | 0.00 | 0.00 | 36 | 1014.2 |
| 20260505000516 | 73 | 185 | 2.6 | 4.3 | 0.00 | 0.00 | 0.00 | 36 | 1014.1 |
| 20260505000016 | 73 | 189 | 1.7 | 6.1 | 0.00 | 0.00 | 0.00 | 36 | 1014.0 |
| 20260504235535 | 73 | 183 | 2.6 | 6.1 | 0.00 | 0.00 | 0.00 | 36 | 1014.0 |
| 20260504235016 | 74 | 186 | 2.6 | 6.1 | 0.00 | 0.00 | 0.00 | 36 | 1013.9 |
| 20260504234516 | 74 | 185 | 3.5 | 7.8 | 0.00 | 0.00 | 0.00 | 36 | 1013.9 |
| 20260504234036 | 74 | 186 | 2.6 | 5.2 | 0.00 | 0.00 | 0.00 | 36 | 1013.8 |
| 20260504233516 | 75 | 191 | 2.6 | 5.2 | 0.00 | 0.00 | 0.00 | 36 | 1013.7 |
| 20260504233016 | 75 | 178 | 4.3 | 9.6 | 0.00 | 0.00 | 0.00 | 35 | 1013.7 |
| 20260504232516 | 75 | 194 | 2.6 | 8.7 | 0.00 | 0.00 | 0.00 | 36 | 1013.6 |
| 20260504232017 | 76 | 186 | 3.5 | 8.7 | 0.00 | 0.00 | 0.00 | 37 | 1013.6 |
| 20260504231516 | 76 | 187 | 2.6 | 6.1 | 0.00 | 0.00 | 0.00 | 37 | 1013.6 |
| 20260504231016 | 77 | 196 | 3.5 | 7.0 | 0.00 | 0.00 | 0.00 | 36 | 1013.6 |
| 20260504230516 | 77 | 200 | 2.6 | 6.1 | 0.00 | 0.00 | 0.00 | 35 | 1013.6 |
| 20260504230017 | 77 | 194 | 4.3 | 9.6 | 0.00 | 0.00 | 0.00 | 34 | 1013.5 |
| 20260504225517 | 78 | 196 | 2.6 | 5.2 | 0.00 | 0.00 | 0.00 | 33 | 1013.5 |
| 20260504225017 | 78 | 195 | 3.5 | 7.0 | 0.00 | 0.00 | 0.00 | 32 | 1013.5 |
| 20260504224518 | 79 | 189 | 2.6 | 7.8 | 0.00 | 0.00 | 0.00 | 32 | 1013.5 |
| 20260504224016 | 79 | 191 | 3.5 | 8.7 | 0.00 | 0.00 | 0.00 | 31 | 1013.5 |